Dubuque, IA

9:55 AM CDT on October 20, 2019 (GMT -0500)
Dubuque Regional

Weather History for KDBQ - June, 2019

Change the Weather History Date:

Thursday, June 13, 2019

  Actual Average Record
Temperature  
Mean Temperature 58 °F 68 °F  
Max Temperature 69 °F 78 °F 95 °F (1920)
Min Temperature 48 °F 58 °F 45 °F (1962)
Degree Days  
Heating Degree Days 6 1  
Month to date heating degree days 20 28  
Since 1 June heating degree days 20 28  
Since 1 July heating degree days 7422 7074  
Cooling Degree Days 0 4  
Month to date cooling degree days 38 41  
Year to date cooling degree days 64 78  
Since 1 June cooling degree days 38 41  
Growing Degree Days 8 (Base 50)    
Moisture  
Dew Point 43 °F    
Average Humidity 60    
Maximum Humidity 92    
Minimum Humidity 35    
Precipitation  
Precipitation 0.07 in 0.15 in 3.84 in (2000)
Month to date precipitation 2.41 1.95  
Year to date precipitation 19.65 14.82  
Snow  
Snow 0.00 in 0.00 in - ()
Month to date snowfall 0.0 0.0  
Since 1 June snowfall 0.0 0.0  
Since 1 July snowfall 55.2 41.9  
Snow Depth 0.00 in    
Sea Level Pressure  
Sea Level Pressure 30.00 in    
Wind  
Wind Speed 9 mph ()    
Max Wind Speed 23 mph    
Max Gust Speed 30 mph    
Visibility 10.0 miles    
Events      
T = Trace of Precipitation, MM = Missing Value Source: Averaged Metar Reports

Daily Weather History Graph

Daily Weather History Graph

Search for Another Location

Airport or City:

Astronomy

Jun. 13, 2019 Rise Set
Actual Time 5:25 AM CDT 8:40 PM CDT
Civil Twilight 4:50 AM CDT 9:15 PM CDT
Nautical Twilight 4:05 AM CDT 10:00 PM CDT
Astronomical Twilight 3:11 AM CDT 10:54 PM CDT
Moon 4:50 PM CDT (6/13) 3:16 AM CDT (6/13)
Length of Visible Light 16h 24m
Length of Day
15h 15m
Waxing Gibbous, 85% of the Moon is Illuminated
Jun 13
Waxing Gibbous
Jun 17
Full
Jun 25
Last Quarter
Jul 2
New
Jul 9
First Quarter

Hourly Weather History & Observations

Time (CDT) Temp. Dew Point Humidity Pressure Visibility Wind Dir Wind Speed Gust Speed Precip Events Conditions
12:53 AM 52.0 °F 48.9 °F 89% 29.94 in 10.0 mi NNW 6.9 mph - 0.07 in   Mostly Cloudy
1:53 AM 51.1 °F 48.9 °F 92% 29.93 in 10.0 mi NNW 9.2 mph - N/A   Clear
2:53 AM 51.1 °F 48.9 °F 92% 29.93 in 10.0 mi NNW 10.4 mph - N/A   Clear
3:53 AM 51.1 °F 48.0 °F 89% 29.94 in 10.0 mi NNW 10.4 mph - N/A   Mostly Cloudy
4:53 AM 48.9 °F 45.0 °F 86% 29.95 in 10.0 mi NNW 10.4 mph - N/A   Clear
5:53 AM 48.0 °F 43.0 °F 83% 29.97 in 10.0 mi NNW 10.4 mph - N/A   Clear
6:53 AM 50.0 °F 43.0 °F 77% 29.98 in 10.0 mi NNW 12.7 mph - N/A   Clear
7:53 AM 53.1 °F 43.0 °F 69% 30.00 in 10.0 mi NNW 15.0 mph - N/A   Clear
8:53 AM 57.0 °F 43.0 °F 59% 30.02 in 10.0 mi North 15.0 mph 21.9 mph N/A   Clear
9:53 AM 60.1 °F 42.1 °F 51% 30.02 in 10.0 mi NNW 18.4 mph 25.3 mph N/A   Clear
10:53 AM 61.0 °F 39.0 °F 44% 30.03 in 10.0 mi North 18.4 mph 29.9 mph N/A   Partly Cloudy
11:53 AM 63.0 °F 42.1 °F 46% 30.04 in 10.0 mi North 12.7 mph 24.2 mph N/A   Clear
12:53 PM 64.0 °F 39.9 °F 41% 30.04 in 10.0 mi NNW 13.8 mph 25.3 mph N/A   Clear
1:53 PM 66.0 °F 41.0 °F 40% 30.04 in 10.0 mi NW 16.1 mph 20.7 mph N/A   Clear
2:53 PM 66.9 °F 39.9 °F 37% 30.03 in 10.0 mi NNW 12.7 mph - N/A   Clear
3:53 PM 66.9 °F 42.1 °F 40% 30.03 in 10.0 mi NW 6.9 mph - N/A   Clear
4:53 PM 68.0 °F 39.9 °F 36% 30.03 in 10.0 mi WNW 6.9 mph - N/A   Clear
5:53 PM 68.0 °F 39.9 °F 36% 30.03 in 10.0 mi NW 9.2 mph - N/A   Clear
6:53 PM 68.0 °F 41.0 °F 37% 30.02 in 10.0 mi NNW 6.9 mph - N/A   Clear
7:53 PM 64.9 °F 43.0 °F 45% 30.02 in 10.0 mi North 3.5 mph - N/A   Clear
8:53 PM 61.0 °F 44.1 °F 54% 30.02 in 10.0 mi Calm Calm - N/A   Clear
9:53 PM 55.9 °F 44.1 °F 64% 30.02 in 10.0 mi ESE 4.6 mph - N/A   Clear
10:53 PM 55.0 °F 43.0 °F 64% 30.02 in 10.0 mi Calm Calm - N/A   Clear
11:53 PM 53.1 °F 43.0 °F 69% 30.02 in 10.0 mi Calm Calm - N/A   Clear